When you browse on this site, cookies collect data to enhance your experience and personalize the content and advertising you see.
Visit our Privacy Policy to learn more. By continuing to use the site, you agree to this use of cookies and data.
  • In Austria
  • List of Countries
  • For 7 days
  • Water Temperature
  • Satellite Maps
  • Weather Map
  • News
  • Weather Widgets
  • user-avatar
    Login

    Hourly Weather Grzybowo

    Today, 19 December, Wednesday

    Time Temperature Precipitation Wind Pressure Humidity
    00:00 0°C° 0 mm 5 mps 768 mmHg 95%
    01:00 0°C° 0 mm 5 mps 768 mmHg 95%
    02:00 -1°C° 0 mm 5 mps 767 mmHg 95%
    03:00 -1°C° 0 mm 5 mps 767 mmHg 95%
    04:00 -2°C° 0 mm 6 mps 767 mmHg 94%
    05:00 -2°C° 0 mm 6 mps 767 mmHg 93%
    06:00 -2°C° 0 mm 7 mps 766 mmHg 91%
    07:00 -3°C° 0 mm 7 mps 766 mmHg 90%
    08:00 -2°C° 0 mm 8 mps 766 mmHg 85%
    09:00 -2°C° 0 mm 8 mps 765 mmHg 80%
    10:00 -1°C° 0 mm 9 mps 765 mmHg 75%
    11:00 -1°C° 0 mm 9 mps 765 mmHg 75%
    12:00 -1°C° 0 mm 8 mps 764 mmHg 75%
    13:00 -1°C° 0 mm 8 mps 764 mmHg 75%
    14:00 -2°C° 0 mm 8 mps 764 mmHg 77%
    15:00 -2°C° 0 mm 7 mps 763 mmHg 80%
    16:00 -2°C° 0 mm 7 mps 763 mmHg 82%
    17:00 -2°C° 0 mm 7 mps 763 mmHg 82%
    18:00 -2°C° 0 mm 7 mps 763 mmHg 82%
    19:00 -2°C° 0 mm 6 mps 762 mmHg 82%
    20:00 -2°C° 0 mm 6 mps 762 mmHg 82%
    21:00 -2°C° 0 mm 6 mps 762 mmHg 82%
    22:00 -2°C° 0 mm 6 mps 762 mmHg 82%
    23:00 -2°C° 0 mm 6 mps 762 mmHg 83%

    Tomorrow, 20 December, Thursday

    Time Temperature Precipitation Wind Pressure Humidity
    00:00 -1°C° 0 mm 5 mps 762 mmHg 84%
    01:00 -1°C° 0 mm 5 mps 762 mmHg 85%
    02:00 -1°C° 0 mm 5 mps 762 mmHg 86%
    03:00 -1°C° 0 mm 5 mps 762 mmHg 88%
    04:00 -1°C° 0 mm 5 mps 762 mmHg 89%
    05:00 -1°C° 0.1 mm 5 mps 762 mmHg 90%
    06:00 -1°C° 0.1 mm 5 mps 761 mmHg 92%
    07:00 -1°C° 0.1 mm 4 mps 761 mmHg 93%
    08:00 -1°C° 0.1 mm 4 mps 761 mmHg 93%
    09:00 -1°C° 0.1 mm 4 mps 761 mmHg 93%
    10:00 -1°C° 0.1 mm 4 mps 762 mmHg 92%
    11:00 0°C° 0.1 mm 4 mps 761 mmHg 92%
    12:00 0°C° 0.1 mm 4 mps 761 mmHg 91%
    13:00 0°C° 0.1 mm 4 mps 761 mmHg 91%
    14:00 0°C° 0 mm 4 mps 761 mmHg 92%
    15:00 0°C° 0 mm 4 mps 761 mmHg 93%
    16:00 0°C° 0 mm 4 mps 761 mmHg 94%
    17:00 0°C° 0 mm 4 mps 761 mmHg 94%
    18:00 0°C° 0 mm 4 mps 761 mmHg 94%
    19:00 0°C° 0 mm 4 mps 761 mmHg 95%
    20:00 0°C° 0 mm 4 mps 760 mmHg 95%
    21:00 0°C° 0 mm 4 mps 760 mmHg 95%
    22:00 0°C° 0 mm 4 mps 760 mmHg 95%
    23:00 0°C° 0 mm 4 mps 760 mmHg 95%

    Day after tomorrow, 21 December, Friday

    Time Temperature Precipitation Wind Pressure Humidity
    00:00 0°C° 0 mm 4 mps 760 mmHg 96%
    01:00 0°C° 0 mm 4 mps 759 mmHg 96%
    02:00 0°C° 0 mm 5 mps 759 mmHg 96%
    03:00 0°C° 0 mm 5 mps 759 mmHg 96%
    04:00 0°C° 0 mm 5 mps 758 mmHg 96%
    05:00 +1°C° 0.1 mm 5 mps 758 mmHg 95%
    06:00 +1°C° 0.1 mm 5 mps 758 mmHg 95%
    07:00 +1°C° 0.1 mm 5 mps 757 mmHg 95%
    08:00 +1°C° 0 mm 5 mps 757 mmHg 94%
    09:00 +1°C° 0 mm 6 mps 757 mmHg 94%
    10:00 +1°C° 0 mm 6 mps 757 mmHg 94%
    11:00 +2°C° 0.1 mm 5 mps 756 mmHg 93%
    12:00 +2°C° 0.1 mm 5 mps 755 mmHg 93%
    13:00 +2°C° 0.1 mm 5 mps 755 mmHg 92%
    14:00 +2°C° 0 mm 5 mps 754 mmHg 93%
    15:00 +2°C° 0 mm 5 mps 754 mmHg 93%
    16:00 +2°C° 0 mm 5 mps 753 mmHg 93%
    17:00 +2°C° 0.1 mm 6 mps 753 mmHg 93%
    18:00 +1°C° 0.1 mm 6 mps 752 mmHg 93%
    19:00 +1°C° 0.1 mm 6 mps 751 mmHg 93%
    20:00 +1°C° 0.1 mm 6 mps 751 mmHg 93%
    21:00 +1°C° 0.1 mm 6 mps 750 mmHg 93%
    22:00 +1°C° 0.1 mm 6 mps 749 mmHg 93%
    23:00 +1°C° 0.9 mm 6 mps 748 mmHg 93%

    22 December, Saturday

    Time Temperature Precipitation Wind Pressure Humidity
    00:00 +1°C° 0.9 mm 5 mps 748 mmHg 93%
    01:00 +1°C° 0.9 mm 5 mps 748 mmHg 93%
    02:00 +2°C° 0.7 mm 5 mps 748 mmHg 92%
    03:00 +3°C° 0.7 mm 5 mps 748 mmHg 92%
    04:00 +3°C° 0.7 mm 5 mps 747 mmHg 91%
    05:00 +5°C° 0.6 mm 5 mps 747 mmHg 90%
    06:00 +5°C° 0.6 mm 5 mps 747 mmHg 89%
    07:00 +5°C° 0.6 mm 5 mps 747 mmHg 88%
    08:00 +6°C° 0.4 mm 5 mps 747 mmHg 87%
    09:00 +6°C° 0.4 mm 5 mps 747 mmHg 86%
    10:00 +6°C° 0.4 mm 5 mps 748 mmHg 86%
    11:00 +6°C° 0.4 mm 5 mps 748 mmHg 86%
    12:00 +6°C° 0.4 mm 5 mps 748 mmHg 85%
    13:00 +6°C° 0.4 mm 4 mps 748 mmHg 85%
    14:00 +6°C° 0.6 mm 5 mps 748 mmHg 87%
    15:00 +4°C° 0.6 mm 6 mps 749 mmHg 89%
    16:00 +4°C° 0.6 mm 6 mps 749 mmHg 91%
    17:00 +3°C° 0.1 mm 7 mps 751 mmHg 89%
    18:00 +3°C° 0.1 mm 7 mps 752 mmHg 88%
    19:00 +1°C° 0.1 mm 8 mps 753 mmHg 86%
    20:00 +2°C° 0.1 mm 7 mps 754 mmHg 86%
    21:00 +2°C° 0.1 mm 6 mps 755 mmHg 86%
    22:00 +2°C° 0.1 mm 6 mps 757 mmHg 85%
    23:00 +2°C° 0.1 mm 5 mps 758 mmHg 87%

    23 December, Sunday

    Time Temperature Precipitation Wind Pressure Humidity
    00:00 +3°C° 0.1 mm 4 mps 758 mmHg 88%
    01:00 +2°C° 0.1 mm 3 mps 759 mmHg 89%
    02:00 +2°C° 0 mm 3 mps 759 mmHg 90%
    03:00 +3°C° 0 mm 2 mps 760 mmHg 90%
    04:00 +3°C° 0 mm 1 mps 760 mmHg 91%
    05:00 +3°C° 0 mm 1 mps 760 mmHg 91%
    06:00 +3°C° 0 mm 1 mps 760 mmHg 91%
    07:00 +2°C° 0 mm 2 mps 761 mmHg 92%
    08:00 +2°C° 0 mm 2 mps 761 mmHg 92%
    09:00 +1°C° 0 mm 3 mps 761 mmHg 92%
    10:00 +1°C° 0 mm 3 mps 761 mmHg 92%
    11:00 +1°C° 0.4 mm 4 mps 761 mmHg 92%
    12:00 +1°C° 0.4 mm 4 mps 761 mmHg 92%
    13:00 +3°C° 0.4 mm 4 mps 761 mmHg 92%
    14:00 +3°C° 0.5 mm 4 mps 761 mmHg 92%
    15:00 +3°C° 0.5 mm 4 mps 761 mmHg 92%
    16:00 +2°C° 0.5 mm 5 mps 761 mmHg 92%
    17:00 +3°C° 0.7 mm 5 mps 760 mmHg 91%
    18:00 +3°C° 0.7 mm 5 mps 760 mmHg 91%
    19:00 +3°C° 0.7 mm 6 mps 760 mmHg 90%
    20:00 +3°C° 0.4 mm 7 mps 760 mmHg 90%
    21:00 +3°C° 0.4 mm 7 mps 760 mmHg 90%
    22:00 +2°C° 0.4 mm 8 mps 760 mmHg 91%
    23:00 +2°C° 0.2 mm 8 mps 760 mmHg 90%

    24 December, Monday

    Time Temperature Precipitation Wind Pressure Humidity
    00:00 +2°C° 0.2 mm 8 mps 761 mmHg 88%
    01:00 +2°C° 0.2 mm 8 mps 761 mmHg 87%
    02:00 +2°C° 0.1 mm 8 mps 761 mmHg 87%
    03:00 +2°C° 0.1 mm 8 mps 762 mmHg 86%
    04:00 +3°C° 0.1 mm 7 mps 762 mmHg 85%
    05:00 +2°C° 0 mm 7 mps 763 mmHg 86%
    06:00 +2°C° 0 mm 6 mps 764 mmHg 86%
    07:00 +2°C° 0 mm 5 mps 764 mmHg 86%
    08:00 +2°C° 0 mm 5 mps 765 mmHg 86%
    09:00 +3°C° 0 mm 4 mps 765 mmHg 86%
    10:00 +3°C° 0 mm 4 mps 766 mmHg 86%
    11:00 +2°C° 0.1 mm 5 mps 766 mmHg 85%
    12:00 +2°C° 0.1 mm 5 mps 766 mmHg 84%
    13:00 +3°C° 0.1 mm 6 mps 767 mmHg 83%
    14:00 +2°C° 0 mm 5 mps 767 mmHg 83%
    15:00 +2°C° 0 mm 5 mps 767 mmHg 83%
    16:00 +2°C° 0 mm 5 mps 768 mmHg 83%
    17:00 +2°C° 0 mm 5 mps 768 mmHg 83%
    18:00 +1°C° 0 mm 5 mps 768 mmHg 83%
    19:00 +1°C° 0 mm 4 mps 768 mmHg 83%
    20:00 +1°C° 0 mm 4 mps 769 mmHg 84%
    21:00 +1°C° 0 mm 4 mps 769 mmHg 86%
    22:00 +2°C° 0 mm 3 mps 769 mmHg 88%
    23:00 +1°C° 0 mm 4 mps 769 mmHg 89%
    Show more